Wetbulb
38.81 39.08 39.22 39.96 40.02 40.73 40.53 39.71 37.10 33.12 34.46 38.49 38.18 41.69 43.52 48.05 48.25 48.34 49.67 50.32 48.39 46.71 47.45 48.93 50.60 52.24 53.42 54.69 57.03 58.04 58.34 58.57 58.58 58.60 58.44 58.68 58.94 59.08
38.47 37.23 37.45 38.89 39.32 39.38 39.71 39.90 39.38 37.15 34.02 38.85 39.58 41.12 41.72 44.29 48.11 48.46 47.46 48.58 47.38 45.41 44.99 45.66 46.96 48.81 49.85 50.89 53.32 55.37 56.83 57.08 57.38 57.48 57.53 57.83 58.26 58.45
35.60 35.72 35.94 36.68 36.76 37.33 37.79 38.01 37.61 37.47 34.54 36.73 39.38 39.58 39.28 40.00 41.50 44.98 46.75 46.32 46.23 46.24 44.57 44.21 44.19 45.10 45.98 46.71 47.41 50.58 54.63 55.18 55.64 56.00 56.52 57.15 57.85 57.95
34.24 33.50 33.93 36.68 33.89 33.94 34.59 34.46 35.24 36.03 34.99 33.13 36.11 37.20 37.50 38.67 38.22 38.29 42.22 46.53 44.86 45.69 44.89 43.72 43.84 44.34 44.37 44.37 44.57 45.66 46.56 52.85 53.09 53.54 54.17 55.23 56.09 56.69
32.97 32.55 33.16 32.80 31.88 32.31 32.34 32.78 33.89 36.07 34.86 34.12 33.68 35.66 35.68 36.24 36.18 36.92 37.43 40.21 43.71 45.39 43.56 41.70 42.34 43.10 44.19 44.05 44.68 44.93 45.13 45.48 50.09 50.30 50.61 51.44 52.54 53.87
31.65 31.51 31.08 30.47 29.64 29.18 30.46 30.62 31.99 31.70 32.32 32.23 32.59 33.46 34.39 35.99 34.53 33.70 33.32 34.83 36.56 42.54 43.29 41.39 41.60 42.79 43.53 44.09 43.96 44.35 44.77 44.95 45.10 48.71 47.93 48.00 48.68 50.05
29.44 29.77 29.92 31.12 33.86 33.08 31.20 29.83 29.62 29.14 29.61 29.64 29.77 31.06 31.48 32.27 31.36 32.41 31.62 32.08 33.70 35.91 36.07 36.49 36.89 38.22 41.70 43.37 44.11 44.12 43.83 44.03 44.41 44.77 47.54 47.22 46.82 47.79
26.82 28.04 28.56 31.09 30.52 32.02 32.08 32.19 31.03 28.03 27.12 27.31 27.34 27.71 29.59 31.30 32.19 31.86 30.73 29.36 29.54 32.45 35.13 34.39 35.07 37.08 37.93 41.03 41.55 41.41 43.25 43.12 43.48 44.03 44.88 47.22 46.14 46.14
26.48 26.82 27.32 29.10 30.02 28.87 30.04 31.07 31.13 32.03 30.25 29.64 27.20 27.23 28.06 30.41 32.07 30.04 32.71 31.68 29.61 32.44 35.31 34.35 29.52 31.15 32.39 35.31 37.03 38.60 40.01 42.56 42.92 43.14 43.30 44.92 46.06 45.36
26.78 26.99 26.86 26.83 27.92 28.26 27.85 27.36 28.00 29.04 30.44 30.81 30.25 30.07 30.21 30.48 30.42 30.95 31.25 33.04 31.67 33.34 33.59 32.19 23.54 24.38 26.76 33.22 35.20 37.10 39.51 41.67 42.15 42.22 42.59 43.54 44.52 43.90
28.17 28.69 28.75 28.22 29.88 31.33 29.53 28.48 27.98 28.21 31.62 33.11 33.57 33.80 33.73 33.58 32.92 30.21 27.86 27.99 28.26 30.23 31.81 30.34 27.76 26.75 24.03 23.28 30.65 34.66 35.77 39.68 41.36 41.92 42.33 42.77 43.08 43.43
27.45 28.76 30.09 29.26 30.94 31.66 30.07 29.02 27.43 27.86 28.58 29.20 29.52 31.45 33.19 33.37 33.69 32.29 30.51 26.89 26.47 27.50 28.39 30.34 27.31 26.70 23.10 21.06 26.18 31.61 32.49 36.43 39.79 40.98 42.32 41.58 41.97 43.47
26.40 26.84 27.91 29.69 30.25 30.99 31.40 29.99 28.90 30.04 29.54 29.03 28.77 29.16 29.69 30.10 31.38 32.84 33.06 31.87 28.73 27.34 31.37 30.23 26.38 25.82 24.25 21.23 25.12 30.14 30.99 32.15 33.53 36.24 39.60 39.84 40.01 39.68
26.28 27.45 27.52 29.01 29.48 30.15 30.54 31.01 31.02 30.08 30.13 29.37 28.77 28.55 28.83 29.60 30.55 32.06 32.68 32.69 32.51 31.08 31.31 31.40 28.22 26.35 23.63 22.79 23.71 26.65 29.33 30.90 31.58 30.73 31.44 32.67 33.31 35.23
28.79 29.15 30.46 30.83 30.70 29.51 29.90 30.30 29.60 28.90 27.28 26.28 25.73 27.50 29.18 30.32 31.25 32.14 32.65 33.35 32.72 32.55 32.22 29.84 28.03 27.14 27.16 20.81 23.32 21.58 26.76 28.26 29.75 27.71 27.24 28.61 28.04 29.04
27.88 27.81 27.35 27.85 27.24 27.10 26.66 28.53 28.83 29.27 28.68 26.74 26.15 26.95 29.38 29.93 29.84 31.17 30.97 31.79 31.03 27.94 31.20 31.41 29.84 29.31 27.24 26.36 26.17 25.53 26.11 24.57 27.93 27.39 25.99 25.70 25.85 26.95
26.36 24.73 23.16 22.67 23.25 24.44 24.89 25.57 27.55 25.25 27.96 27.32 26.17 26.74 27.90 29.16 30.66 31.76 30.31 29.00 26.07 25.70 26.19 27.79 28.78 28.07 27.19 27.10 24.22 25.89 24.98 26.28 27.64 26.07 25.71 24.34 25.20 25.52
25.19 21.94 20.92 20.81 20.50 21.98 22.35 23.37 25.67 26.82 26.20 26.69 27.01 27.68 28.44 29.62 29.08 28.78 28.90 28.40 25.79 24.81 24.54 24.68 24.78 24.59 24.59 23.40 26.87 23.59 24.80 24.80 25.35 24.81 24.95 22.83 22.86 25.13
24.01 21.45 18.79 20.27 19.81 21.62 21.84 22.55 23.41 25.63 28.54 26.53 27.10 29.45 29.03 27.18 27.85 27.39 27.26 26.25 23.74 23.38 23.42 23.75 23.14 19.39 18.59 14.20 22.25 27.43 23.83 23.55 23.14 22.81 24.22 23.89 22.69 23.63
23.85 22.30 22.58 20.28 20.89 21.21 21.38 21.11 22.53 23.41 24.94 24.98 27.90 26.39 26.58 26.88 26.56 25.77 25.06 18.34 21.81 22.09 21.92 23.20 23.54 21.94 21.05 17.92 17.35 17.74 26.52 22.93 23.04 21.71 20.93 21.83 24.59 26.60
20.37 22.01 21.85 22.73 22.18 21.06 20.65 20.61 20.63 22.10 21.18 21.81 22.31 23.41 23.55 18.72 19.51 20.18 20.11 16.43 17.04 19.96 20.76 20.56 20.11 20.58 19.98 20.38 15.73 13.74 16.07 27.09 25.37 22.95 21.48 20.70 20.04 19.95
17.96 19.07 19.55 20.78 21.11 21.74 21.12 20.65 19.62 20.47 20.88 20.76 20.31 19.83 20.00 21.59 21.71 20.89 18.45 19.65 19.00 15.40 17.17 19.40 21.70 21.76 17.47 17.99 12.37 10.88 14.71 18.18 23.25 24.37 24.89 23.00 19.70 16.64
15.93 16.74 17.33 17.80 18.39 19.27 21.26 21.14 19.82 18.73 19.40 19.45 19.60 19.75 19.82 19.78 20.31 19.03 18.05 17.91 18.61 19.00 19.25 20.08 20.80 20.08 17.61 16.29 13.58 12.21 10.94 13.01 14.64 13.74 15.78 22.15 23.21 24.03
MSLP
1016.04 1015.70 1015.49 1015.24 1015.06 1014.89 1014.67 1014.57 1014.27 1013.27 1012.47 1012.39 1012.21 1011.75 1011.17 1011.17 1010.51 1010.55 1010.67 1010.59 1010.64 1010.70 1010.83 1010.83 1011.05 1011.10 1010.74 1010.65 1009.97 1009.50 1010.55 1012.08 1012.98 1013.65 1014.64 1015.50 1016.30 1016.95
1015.50 1015.33 1015.05 1014.82 1014.62 1014.43 1014.20 1013.99 1013.73 1013.24 1012.10 1012.27 1011.91 1011.49 1011.23 1010.90 1010.63 1010.25 1010.25 1010.31 1010.26 1010.27 1010.19 1010.57 1010.55 1010.49 1010.64 1010.49 1010.29 1009.14 1008.45 1009.93 1011.15 1012.28 1013.11 1014.12 1015.18 1016.02
1015.04 1014.81 1014.52 1014.31 1014.16 1013.99 1013.77 1013.48 1013.22 1012.97 1012.20 1011.70 1011.47 1011.24 1010.94 1010.72 1010.53 1010.35 1010.02 1010.05 1010.09 1010.00 1010.01 1010.04 1010.17 1010.02 1010.09 1010.01 1009.79 1009.78 1008.58 1008.37 1009.39 1010.59 1011.59 1012.59 1013.54 1014.85
1014.68 1014.49 1014.17 1013.79 1013.62 1013.52 1013.44 1013.24 1012.98 1012.74 1012.27 1011.12 1011.26 1010.94 1010.64 1010.26 1010.09 1009.98 1009.78 1009.43 1009.55 1009.59 1009.46 1009.47 1009.63 1009.77 1009.72 1009.64 1009.32 1009.46 1009.33 1007.60 1007.84 1008.83 1010.13 1010.96 1012.02 1013.03
1014.04 1013.90 1013.64 1013.50 1013.40 1013.28 1013.25 1013.08 1012.76 1012.40 1011.98 1011.29 1011.00 1010.86 1010.62 1010.24 1009.90 1009.52 1009.36 1009.24 1009.00 1008.87 1008.95 1009.07 1009.04 1009.02 1009.11 1009.42 1009.34 1008.94 1008.77 1008.55 1007.11 1007.61 1008.29 1009.57 1010.79 1011.40
1013.74 1013.72 1013.61 1013.53 1013.48 1013.36 1013.12 1012.86 1012.65 1012.48 1012.17 1011.51 1010.77 1010.59 1010.61 1010.52 1010.15 1009.80 1009.48 1008.99 1008.73 1008.41 1008.21 1008.43 1008.62 1008.53 1008.53 1008.59 1008.60 1008.49 1007.88 1008.27 1007.85 1005.90 1006.59 1008.17 1009.43 1010.39
1013.48 1013.31 1013.13 1013.01 1012.81 1012.70 1012.55 1012.16 1012.24 1012.08 1011.98 1011.52 1010.54 1010.42 1010.01 1010.35 1010.60 1010.10 1009.59 1008.87 1008.39 1008.15 1008.24 1008.23 1008.34 1008.15 1008.09 1007.98 1007.88 1007.81 1007.75 1007.20 1007.72 1007.59 1005.21 1006.61 1008.05 1009.15
1013.27 1012.84 1012.62 1012.33 1012.06 1011.79 1011.59 1011.40 1011.45 1011.35 1011.26 1010.99 1010.16 1009.98 1009.71 1009.89 1010.21 1010.31 1010.01 1009.40 1008.71 1007.97 1008.19 1008.16 1008.15 1008.04 1008.02 1007.84 1007.51 1007.31 1007.08 1006.91 1007.04 1007.32 1006.99 1005.33 1006.74 1007.94
1012.63 1012.13 1011.76 1011.43 1011.13 1010.84 1010.51 1010.25 1010.06 1010.05 1010.05 1009.92 1009.25 1009.37 1009.47 1009.48 1009.76 1009.52 1009.59 1009.72 1009.09 1008.72 1008.57 1008.27 1008.07 1008.03 1007.86 1007.79 1007.44 1006.99 1006.68 1006.11 1006.02 1005.76 1006.08 1006.94 1005.38 1006.43
1011.79 1011.26 1010.82 1010.35 1010.02 1009.84 1009.56 1009.32 1008.99 1008.76 1008.68 1008.46 1008.04 1008.07 1008.40 1008.78 1008.82 1008.86 1008.74 1008.74 1008.68 1008.74 1008.63 1008.39 1008.42 1008.05 1007.70 1007.30 1007.14 1006.58 1005.82 1005.61 1005.38 1005.03 1004.90 1006.01 1005.73 1005.01
1010.64 1010.11 1009.62 1009.19 1008.77 1008.55 1008.40 1008.19 1007.85 1007.58 1007.36 1007.08 1006.93 1006.99 1007.12 1007.44 1007.84 1008.11 1008.10 1008.31 1007.77 1008.25 1008.49 1008.42 1008.48 1008.39 1008.05 1007.23 1006.85 1006.34 1005.43 1004.75 1004.38 1004.06 1003.73 1004.45 1005.92 1004.59
1009.79 1009.10 1008.63 1008.13 1007.54 1007.27 1007.07 1006.78 1006.47 1006.28 1006.11 1005.95 1005.81 1005.85 1006.00 1006.15 1006.58 1006.79 1007.21 1007.27 1007.41 1007.29 1007.50 1008.36 1008.49 1008.62 1008.22 1007.15 1006.91 1006.37 1005.36 1004.21 1003.41 1003.46 1003.52 1003.81 1004.95 1005.02
1008.94 1008.14 1007.49 1006.91 1006.40 1006.02 1005.83 1005.62 1005.29 1005.25 1005.04 1005.03 1005.01 1005.00 1005.04 1005.08 1005.20 1005.37 1005.65 1006.12 1006.26 1006.30 1006.39 1007.23 1007.86 1008.28 1008.29 1007.66 1006.94 1006.59 1005.96 1004.98 1003.88 1003.66 1003.83 1003.98 1004.81 1004.78
1007.97 1007.14 1006.47 1005.92 1005.46 1005.07 1004.78 1004.43 1004.30 1004.22 1004.09 1003.91 1003.94 1003.96 1004.08 1004.20 1004.29 1004.36 1004.40 1004.59 1004.86 1005.15 1005.70 1005.79 1006.63 1007.62 1007.89 1007.63 1007.31 1006.89 1006.53 1005.95 1005.28 1004.61 1005.30 1005.30 1007.01 1007.61
1007.29 1006.44 1005.59 1004.74 1004.37 1004.08 1003.72 1003.41 1003.17 1002.98 1002.91 1002.98 1002.92 1002.95 1002.92 1003.10 1003.37 1003.58 1003.75 1003.89 1004.02 1004.03 1004.34 1004.69 1005.14 1006.16 1007.21 1007.13 1007.18 1007.13 1006.94 1006.77 1006.29 1006.19 1006.37 1006.80 1007.72 1008.41
1006.84 1006.08 1005.42 1004.74 1004.11 1003.67 1003.19 1002.53 1001.97 1001.46 1001.20 1001.26 1001.55 1001.81 1002.09 1002.30 1002.61 1002.65 1002.86 1002.93 1002.87 1003.52 1003.70 1003.93 1004.62 1005.55 1006.38 1006.71 1006.65 1006.78 1006.85 1006.87 1007.17 1007.42 1007.73 1008.55 1008.83 1009.33
1006.78 1006.18 1005.68 1005.08 1004.44 1003.84 1003.20 1002.37 1001.36 1000.98 1000.35 1000.50 1001.09 1001.40 1001.47 1001.63 1001.83 1001.86 1002.13 1002.27 1002.59 1003.18 1003.80 1004.12 1004.72 1005.43 1005.81 1006.53 1006.74 1006.73 1007.05 1007.18 1007.45 1008.04 1008.56 1008.69 1009.37 1009.82
1006.98 1006.73 1006.27 1005.65 1005.16 1004.47 1003.72 1002.80 1001.93 1001.04 1000.61 1000.58 1000.79 1000.94 1001.05 1001.08 1001.27 1001.59 1001.69 1001.88 1002.47 1003.12 1003.66 1004.40 1004.81 1005.92 1006.37 1006.89 1006.89 1006.95 1007.32 1007.63 1008.02 1008.44 1008.90 1008.94 1010.12 1010.59
1007.38 1007.06 1006.93 1006.29 1005.64 1005.04 1004.41 1003.67 1002.87 1002.04 1001.15 1000.86 1000.92 1000.89 1000.82 1000.81 1001.04 1001.42 1001.77 1002.12 1002.85 1003.46 1003.98 1004.32 1004.91 1005.34 1006.27 1007.16 1007.49 1007.31 1007.48 1007.98 1008.43 1009.07 1009.24 1009.49 1010.49 1011.03
1007.99 1007.63 1007.17 1006.88 1006.27 1005.72 1005.13 1004.52 1003.77 1003.03 1002.37 1001.91 1001.35 1001.43 1001.31 1001.39 1001.67 1002.00 1002.43 1002.87 1003.34 1003.89 1004.39 1004.73 1004.99 1005.30 1005.93 1006.73 1007.71 1008.27 1007.87 1008.24 1008.72 1009.35 1010.02 1010.44 1010.90 1011.39
1008.94 1008.37 1008.00 1007.42 1006.91 1006.49 1005.99 1005.45 1004.89 1004.31 1003.86 1003.30 1002.92 1002.63 1002.43 1002.28 1002.53 1002.62 1002.92 1003.37 1003.81 1004.25 1004.74 1005.17 1005.43 1005.56 1006.28 1006.95 1008.06 1008.94 1008.81 1008.68 1009.08 1009.38 1010.21 1010.61 1011.16 1011.69
1010.01 1009.49 1009.02 1008.41 1007.77 1007.17 1006.69 1006.32 1005.88 1005.37 1004.93 1004.52 1004.21 1003.93 1003.66 1003.42 1003.47 1003.56 1003.72 1004.12 1004.47 1004.92 1005.32 1005.63 1005.91 1006.09 1006.59 1007.24 1008.62 1009.33 1009.43 1009.68 1009.91 1010.31 1010.58 1010.81 1011.09 1011.51
1011.11 1010.57 1010.02 1009.47 1008.85 1008.22 1007.54 1007.13 1006.74 1006.41 1006.03 1005.72 1005.45 1005.17 1004.84 1004.66 1004.64 1004.66 1004.79 1005.01 1005.22 1005.51 1005.81 1006.13 1006.49 1006.89 1007.50 1008.24 1008.99 1009.65 1010.16 1010.49 1010.93 1011.29 1011.83 1011.76 1011.29 1011.31
Wind_Speed
8 8 7 7 5 7 7 6 8 13 12 9 7 8 9 4 5 4 4 7 7 4 7 10 11 13 14 18 29 39 36 35 34 34 32 31 32 32
7 6 6 5 6 5 5 5 6 9 13 8 5 3 5 4 6 6 6 7 8 7 7 9 11 13 14 16 21 28 38 37 36 34 33 31 31 31
8 9 10 9 8 7 7 8 9 9 13 11 9 4 5 6 6 4 4 5 4 8 8 8 9 10 13 15 14 20 34 36 36 34 34 33 33 32
8 7 8 7 7 5 5 8 8 8 9 16 10 8 7 6 6 6 5 4 5 8 10 10 11 11 11 13 15 14 16 34 38 35 33 35 35 35
9 8 9 7 7 5 5 5 5 6 6 8 7 3 3 3 5 5 4 4 4 9 11 11 12 12 12 14 14 13 12 16 34 32 32 34 35 36
6 4 4 4 5 5 7 9 9 7 8 9 10 8 4 5 4 5 6 3 5 4 6 6 6 8 11 14 14 14 10 14 16 36 34 33 34 34
6 5 6 8 17 16 11 13 13 11 10 11 14 12 11 9 4 4 4 4 3 4 3 3 3 3 6 10 15 14 14 12 13 15 30 35 34 33
7 8 9 17 17 22 23 25 20 14 14 12 13 15 16 12 2 2 4 3 4 1 3 3 3 5 4 6 10 13 17 16 15 16 20 34 33 32
11 11 11 10 17 14 19 23 23 24 20 16 17 14 14 12 11 7 4 3 2 4 3 5 1 2 1 4 12 15 17 17 17 15 17 30 36 37
12 13 14 15 15 16 15 15 16 15 15 13 16 15 14 12 13 12 13 6 5 3 2 4 2 3 2 2 11 16 15 20 19 18 19 23 32 38
14 15 16 15 21 26 17 15 16 15 18 26 26 25 21 20 17 8 9 10 11 5 2 1 1 2 3 3 4 14 17 16 19 20 20 26 29 37
12 12 18 21 24 23 18 15 15 15 14 13 12 16 20 16 20 15 10 10 8 7 5 4 2 1 4 2 3 6 6 11 13 16 21 22 29 17
11 11 10 21 23 25 22 13 13 12 14 12 11 9 9 9 9 10 12 9 8 10 6 5 3 1 3 3 1 3 6 5 4 4 9 21 29 23
13 10 12 21 22 22 18 19 21 13 8 9 10 10 10 8 9 10 12 11 11 14 8 8 4 5 3 1 2 2 3 4 3 7 8 16 14 1
9 15 23 22 20 14 18 20 18 10 10 10 11 9 8 9 9 8 7 11 14 15 10 9 4 7 3 2 3 2 2 3 3 7 6 7 8 6
10 8 8 10 8 7 6 9 8 9 10 11 10 9 8 7 8 7 8 8 7 3 6 8 8 7 4 3 2 5 2 3 2 5 8 6 7 6
7 6 6 6 8 7 7 8 4 3 2 3 5 6 6 6 5 6 4 4 4 5 6 6 8 8 6 2 2 3 2 3 3 6 6 8 5 5
4 5 6 5 6 7 8 8 8 5 0 3 3 4 4 5 4 4 4 4 7 5 6 6 8 5 2 5 7 4 2 2 3 5 5 7 6 5
6 3 6 7 4 7 7 7 8 7 8 2 2 1 3 3 5 5 4 5 5 5 5 5 5 3 3 2 1 10 3 4 4 5 4 3 4 4
6 7 5 6 7 8 8 8 8 9 8 8 6 4 3 4 4 5 4 3 6 5 5 4 4 2 3 5 4 2 4 5 5 4 3 4 7 13
8 7 7 8 6 7 7 7 8 7 7 7 8 7 6 3 3 3 4 5 5 4 6 4 1 10 8 5 4 3 4 6 4 4 4 4 3 3
8 8 8 8 8 8 6 7 7 8 8 7 7 7 7 6 5 5 3 4 4 4 3 4 4 6 3 3 5 3 5 8 16 21 16 6 4 5
8 7 7 8 8 9 8 7 6 6 7 6 6 7 6 7 6 6 6 6 6 6 4 5 5 5 4 6 7 3 8 4 4 8 8 15 15 12
Wind_Direction
260 258 258 265 258 272 271 270 279 292 284 281 271 268 281 280 256 233 261 279 298 244 242 278 277 276 272 262 233 197 194 202 202 199 200 201 203 199
267 256 260 266 264 265 271 273 272 277 284 284 280 258 288 283 262 224 220 229 255 273 276 254 263 278 278 278 261 235 192 196 199 198 196 197 199 198
264 266 265 262 265 268 266 264 267 270 275 279 275 255 266 279 287 275 250 218 239 235 241 252 254 250 256 273 274 266 221 195 194 195 194 192 191 195
266 265 270 280 278 261 257 261 263 267 277 283 279 275 255 252 253 264 240 215 207 225 237 250 253 254 258 264 268 270 275 213 193 190 191 189 189 189
262 260 265 275 285 302 311 300 300 310 307 302 304 307 296 282 279 276 252 257 236 218 219 230 245 248 242 247 256 253 263 270 198 191 186 188 190 187
291 285 278 278 281 295 296 291 287 288 292 293 291 285 283 294 270 260 279 251 244 232 227 214 222 262 269 262 251 256 251 266 274 193 182 186 189 189
294 287 279 268 280 278 278 276 275 273 272 274 274 278 275 282 266 281 267 249 265 211 221 230 228 227 263 272 261 240 230 218 253 261 197 184 188 187
275 277 271 279 277 274 272 271 263 262 261 259 265 262 268 267 256 303 318 305 292 298 209 261 159 252 263 273 304 291 237 220 212 213 234 199 182 179
274 274 274 268 269 265 265 265 263 260 252 254 258 253 261 264 274 279 271 253 255 309 233 268 170 269 319 297 304 307 282 247 223 205 225 225 185 177
267 266 263 264 263 262 262 263 260 257 255 248 249 253 250 244 242 251 258 250 292 283 272 257 342 264 288 245 311 322 309 248 230 214 198 224 204 174
272 271 267 259 263 265 262 259 255 254 254 252 252 254 252 243 240 240 242 251 255 252 203 268 228 312 300 292 313 316 325 278 234 222 208 197 208 177
288 283 275 271 265 253 253 255 255 252 248 252 252 253 253 246 240 234 233 239 249 241 185 195 181 231 289 294 307 321 319 315 221 226 208 189 189 181
288 283 278 275 266 264 261 259 261 268 253 242 243 244 241 237 238 232 222 223 225 241 161 157 168 191 264 275 307 326 331 316 19 92 164 167 179 158
289 283 280 277 281 276 274 262 260 251 255 239 234 232 232 227 227 230 231 230 227 235 205 165 163 184 196 236 252 330 336 346 56 82 93 86 73 107
294 293 300 295 287 281 273 269 263 252 239 235 235 238 223 224 225 227 229 239 233 231 207 180 151 162 192 204 187 196 131 351 64 100 76 95 112 116
315 302 315 321 297 288 288 290 269 251 236 226 222 224 230 204 221 222 226 221 192 154 152 155 146 151 162 195 180 160 173 152 117 116 112 99 92 104
323 340 334 341 344 335 331 327 288 291 288 179 188 216 213 201 216 224 197 173 125 153 123 105 99 102 81 140 120 142 117 120 127 123 123 116 99 113
335 341 339 338 346 343 345 346 352 333 145 145 161 171 190 206 209 168 173 170 141 140 126 131 121 115 105 35 42 119 98 87 93 106 126 109 109 117
2 335 351 353 340 355 355 353 355 353 5 31 92 293 173 88 138 149 120 117 102 116 133 137 151 117 116 119 75 35 116 127 111 112 115 80 128 120
7 3 359 5 5 3 0 1 356 2 12 17 29 59 50 91 94 100 99 113 131 127 130 123 140 125 132 145 126 348 8 130 139 120 100 75 85 107
358 6 8 2 8 13 5 3 4 14 16 20 21 24 21 45 56 80 98 98 104 115 134 115 69 110 109 105 79 28 341 143 102 124 121 109 112 111
5 8 5 6 5 10 3 12 14 19 17 18 25 24 23 39 52 59 65 84 76 74 77 96 117 116 71 84 114 116 92 65 71 75 70 76 156 156
9 2 5 7 10 9 3 13 13 17 21 22 25 27 31 44 48 64 69 75 91 93 99 90 72 64 69 119 126 111 115 111 92 77 57 55 70 95